Regional Weather Roundup
Issued by NWS Newport/Morehead, NC

Current Version | Previous Version | Text Only | Print | Product List | Glossary On
Versions: 1 2 3 4 5 6 7 8 9 10 11 12 13 14 15 16 17 18 19 20 21 22 23 24 25 26 27 28 29 30 31 32 33 34 35 36 37 38 39 40 41 42 43 44 45 46 47 48 49 50
000
ASUS42 KMHX 301610
RWRMHX
WEATHER ROUNDUP FOR EASTERN NORTH CAROLINA
NATIONAL WEATHER SERVICE NEWPORT/MOREHEAD CITY NC
1100 AM EST FRI JAN 30 2015

NOTE: "FAIR" INDICATES FEW OR NO CLOUDS BELOW 12,000 FEET
WITH NO SIGNIFICANT WEATHER AND/OR OBSTRUCTIONS TO VISIBILITY

NCZ015>017-031-032-045>047-102-103-301700-
NORTH COAST

CITY           SKY/WX    TMP DP  RH WIND       PRES   REMARKS
EDENTON        CLOUDY    44  35  71 N13G18    30.02R
ELIZABETH CITY CLOUDY    42  37  82 NW9       30.01S
KITTY HAWK     PTSUNNY   40  39  96 N6        29.98S
MANTEO         CLOUDY    39  37  93 N7        30.00R

$$

NCZ045>047-081-094-103-104-301700-
CENTRAL COAST

CITY           SKY/WX    TMP DP  RH WIND       PRES   REMARKS
FRISCO         CLOUDY    42  37  82 N10G20    29.99R
SWANQUARTER    NOT AVBL

$$

NCZ095-097-098-100-101-301700-
SOUTHERN COAST

CITY           SKY/WX    TMP DP  RH WIND       PRES   REMARKS
BEAUFORT       PTSUNNY   48  34  58 N20G26    30.01S
CEDAR ISLAND   NOT AVBL
JACKSONVILLE   MOSUNNY   50  29  44 NW22G32   30.05R
PINEY ISLAND     N/A    N/A N/A N/A MISG      30.00S
WILMINGTON     MOSUNNY   50  30  46 NW20G29   30.06R


$$

NCZ011>013-027>030-043-044-078>080-089-090>093-098-301700-
COASTAL PLAIN

CITY           SKY/WX    TMP DP  RH WIND       PRES   REMARKS
AHOSKIE        CLOUDY    44  29  55 NW6       30.04S
CLINTON        MOSUNNY   48  27  43 NW13G22   30.10R
ELIZABETHTOWN  SUNNY     49  27  42 NW9G23    30.09S
GOLDSBORO      MOSUNNY   48  32  53 NW13G26   30.06R
GREENVILLE     PTSUNNY   46  28  49 N14G24    30.07R
HAVELOCK       PTSUNNY   48  30  49 NW23G30   30.03R
KENANSVILLE    MOSUNNY   47  26  43 N15G22    30.09R
KINSTON        SUNNY     48  25  40 N21G29    30.07R
NEW BERN       SUNNY     50  31  48 NW17G23   30.04R
RICHLANDS      MOSUNNY   48  27  43 NW9G22    30.06S
ROCKY MOUNT    MOSUNNY   48  23  37 NW22G29   30.08R
WASHINGTON     PTSUNNY   46  31  54 N17G25    30.04R
WHITEVILLE     SUNNY     50  28  43 NW5       30.09R

$$

AMZ130-135-150-152-154-156-158-170-250-252-270-ANZ085-086-088-633-658-670-301700-
MARINE OBSERVATIONS

STATION/POSITION TIME  TEMP    WIND        PRES    WAVE   SWELL
                       AIR SEA DIR/SP/G            HT/PER HT/PER
                 (UTC) (F)     (DEG/KT/KT) (MB)    (FT/S) (FT/S)
CHESAPEAKE LIGHT 1500   41     330/ 17/ 21 1016.1
64 E VA BEACH    1600   42 49  340/ 21/ 25 1014.2    5/ 5   2/ 9
DUCK             1600   39 44  340/ 11/ 11 1014.7
2 E DUCK         1600      43                N/A     2/11
10 NE DUCK       1500      44                N/A     3/ 3   2/11
OREGON INLET     1600   39 41  360/ 13/ 18 1015.5
13E OREGON INLT  1500      43                N/A     4/ 4   2/11
HATTERAS CG      1600   42 46  350/ 20/ 23 1015.8
DIAMOND BUOY     1600   46 68  340/ 23/ 27 1014.4    5/ 7   2/ 8
17 S OCRACOKE    NOT AVBL
CAPE LOOKOUT     1500   46     340/ 21/ 25 1016.0
BEAUFORT LAB     1600   46 47  350/ 13/ 16 1015.1
27 SE WRIGHTSVLE NOT AVBL
5 SE WRIGHTSVLE  1500   50 52  350/ 21/ 25 1017.1
225 S CAPE HAT   1514   66 72  230/ 23/ 29 1014.7    8/ 6   2/11
41 SE CHARLESTON 1600   56 68  340/ 21/ 25 1018.3    5/ 6   2/11

$$


USA.gov is the U.S. government's official web portal to all federal, state and local government web resources and services.